Погода в Лесниково

Россия / Курганская область     55°17′21″N   65°19′13″E
темп.,
°C
ветер,
м/с
пор.,
м/с
влажн.,
%
обл.,
%
осадки,
мм/ч
давл.,
гПа
погр.,
м
16 июня, ср
ср1623:00+18сз237697 0.1 101530
02:00+18зсз228791 0.4 101430
05:00+18з228864 0.4 101439
08:00+22з2373100 0.4 1015353
11:00+27зсз3452100 0.4 1015977
14:00+29зсз464435 0.0 10141719
17:00+30зсз573893 0.0 10132412
20:00+26зсз22550 0.0 101217
17 июня, чт
чт1723:00+21ююз11621 0.0 101211
02:00+19ююз22725 0.0 101113
05:00+18ююз337085 0.1 101140
08:00+23зюз4660100 0.0 1010266
11:00+27ююз3445100 0.0 1008509
14:00+31юз71235100 0.0 10062058
17:00+31з153191 0.0 10031041
20:00+22ю4116599 0.6 1001236
18 июня, пт
пт1823:00+16ссв3693100 2.2 1003115
02:00+17з1192100 0.2 100318
05:00+16с5896100 0.2 1003521
08:00+11с101793100 1.5 1006735
11:00+11ссв81480100 2.3 1009940
14:00+18ссв9124231 0.0 10092170
17:00+18с10133724 0.0 10102558
20:00+16с814416 0.0 10121733
19 июня, сб
сб1923:00+11ссз48535 0.0 1014128
02:00+9сз49645 0.0 1014169
05:00+8сз38655 0.0 1014188
08:00+15ссз574677 0.0 1015588
11:00+18ссз783583 0.0 10142466
14:00+18ссз6940100 0.0 10142685
17:00+18с794382 0.0 10141879
20:00+16ссз610526 0.0 1014487
20 июня, вс
вс2023:00+11ссз47700 0.0 1015112
02:00+9ссз47810 0.0 1015106
05:00+9ссз37800 0.0 1015135
08:00+16с46530 0.0 1015509
11:00+21ссз46365 0.0 10131498
14:00+24ссз463899 0.0 10122057
17:00+23ссз585178 0.0 10121365
20:00+19ссз227896 0.3 101318